TUI6PT EDDF-LDSP

Flight info

Callsign TUI6PT
Flight time N/A
Altitude 33000
Route CINDY8S/18 CINDY Z74 LAMPU DCT NOMBO Y161 MAH DCT VAVOR DCT RADIZ DCT GIMIX DCT ALIVO DCT NUPSO
Aircraft B38M/M-SDE1FGHILORVWXY/HB1

Departure

Time 2026-05-05 19:06
Airport Frankfurt Main Airport (EDDF)

Arrival

Time N/A
Airport Split Saint Jerome Airport (LDSP)
Time Latitude Longitude Altitude Speed Heading
2026-05-05 18:45 50.04094 8.55755 362 ft 0 kts 160°
2026-05-05 19:00 50.04085 8.55759 362 ft 3 kts 160°
2026-05-05 19:00 50.04045 8.55782 356 ft 9 kts 159°
2026-05-05 19:00 50.03997 8.55734 352 ft 11 kts 250°
2026-05-05 19:01 50.03965 8.55602 360 ft 16 kts 250°
2026-05-05 19:01 50.03917 8.55397 353 ft 25 kts 250°
2026-05-05 19:01 50.03848 8.55108 355 ft 30 kts 249°
2026-05-05 19:01 50.03776 8.54810 352 ft 29 kts 249°
2026-05-05 19:02 50.03705 8.54513 349 ft 29 kts 250°
2026-05-05 19:02 50.03637 8.54230 345 ft 27 kts 250°
2026-05-05 19:02 50.03572 8.53953 348 ft 28 kts 250°
2026-05-05 19:02 50.03502 8.53665 345 ft 29 kts 249°
2026-05-05 19:03 50.03433 8.53376 336 ft 29 kts 249°
2026-05-05 19:03 50.03363 8.53083 338 ft 29 kts 249°
2026-05-05 19:03 50.03299 8.52814 335 ft 19 kts 250°
2026-05-05 19:03 50.03285 8.52754 335 ft 0 kts 250°
2026-05-05 19:04 50.03285 8.52753 335 ft 1 kts 250°
2026-05-05 19:04 50.03278 8.52728 336 ft 6 kts 248°
2026-05-05 19:04 50.03242 8.52636 336 ft 15 kts 226°
2026-05-05 19:04 50.03152 8.52595 335 ft 5 kts 179°
2026-05-05 19:05 50.03151 8.52595 336 ft 0 kts 179°
2026-05-05 19:05 50.03149 8.52595 336 ft 2 kts 179°
2026-05-05 19:05 50.03048 8.52596 338 ft 44 kts 180°
2026-05-05 19:06 50.02488 8.52601 338 ft 115 kts 179°
2026-05-05 19:06 50.01491 8.52607 370 ft 166 kts 180°
2026-05-05 19:06 50.00305 8.52639 923 ft 177 kts 179°
2026-05-05 19:06 49.99059 8.52668 1655 ft 183 kts 181°
2026-05-05 19:07 49.97782 8.52691 2323 ft 191 kts 180°
2026-05-05 19:07 49.96440 8.53340 2611 ft 219 kts 144°
2026-05-05 19:07 49.95499 8.55352 2944 ft 243 kts 116°
2026-05-05 19:07 49.94806 8.57750 3467 ft 243 kts 117°
2026-05-05 19:08 49.94093 8.60136 3699 ft 255 kts 112°
2026-05-05 19:08 49.93756 8.62905 4000 ft 267 kts 91°
2026-05-05 19:08 49.93779 8.65799 4818 ft 270 kts 92°
2026-05-05 19:08 49.93553 8.68706 5574 ft 273 kts 109°
2026-05-05 19:09 49.92563 8.71191 6314 ft 272 kts 140°
2026-05-05 19:09 49.91007 8.72852 7029 ft 276 kts 150°
2026-05-05 19:09 49.89394 8.74515 7799 ft 280 kts 146°
2026-05-05 19:09 49.88085 8.76783 8560 ft 288 kts 123°
2026-05-05 19:10 49.87065 8.79500 9281 ft 295 kts 123°
2026-05-05 19:10 49.86032 8.82264 10009 ft 299 kts 123°
2026-05-05 19:10 49.84986 8.85093 10393 ft 316 kts 122°
2026-05-05 19:10 49.83871 8.88138 10726 ft 333 kts 122°
2026-05-05 19:11 49.82713 8.91318 11165 ft 345 kts 121°
2026-05-05 19:11 49.81522 8.94592 11766 ft 350 kts 121°
2026-05-05 19:11 49.80322 8.97888 12470 ft 354 kts 121°
2026-05-05 19:11 49.79105 9.01228 13155 ft 357 kts 121°
2026-05-05 19:12 49.77878 9.04590 13826 ft 361 kts 121°
2026-05-05 19:12 49.76643 9.07989 14431 ft 365 kts 120°
2026-05-05 19:12 49.75812 9.11738 15047 ft 371 kts 105°
2026-05-05 19:12 49.75194 9.15615 15648 ft 374 kts 108°
2026-05-05 19:13 49.74159 9.19270 16268 ft 371 kts 124°
2026-05-05 19:13 49.72571 9.22407 16843 ft 371 kts 139°
2026-05-05 19:13 49.70632 9.24950 17430 ft 372 kts 142°
2026-05-05 19:13 49.68648 9.27551 17999 ft 376 kts 142°
2026-05-05 19:14 49.66656 9.30180 18528 ft 378 kts 141°
2026-05-05 19:14 49.64657 9.32826 19036 ft 380 kts 141°
2026-05-05 19:14 49.62647 9.35486 19543 ft 382 kts 141°
2026-05-05 19:14 49.60626 9.38159 20040 ft 384 kts 141°
2026-05-05 19:15 49.58591 9.40847 20539 ft 386 kts 141°
2026-05-05 19:15 49.56548 9.43542 21002 ft 389 kts 141°
2026-05-05 19:15 49.54484 9.46262 21462 ft 391 kts 141°
2026-05-05 19:15 49.52414 9.48988 21966 ft 393 kts 141°
2026-05-05 19:16 49.50327 9.51731 22434 ft 395 kts 141°
2026-05-05 19:16 49.48231 9.54485 22911 ft 398 kts 141°
2026-05-05 19:16 49.46144 9.57222 23361 ft 401 kts 141°
2026-05-05 19:16 49.44018 9.60008 23761 ft 403 kts 141°
2026-05-05 19:17 49.41880 9.62806 24167 ft 405 kts 141°
2026-05-05 19:17 49.39733 9.65612 24578 ft 407 kts 141°
2026-05-05 19:17 49.37573 9.68433 24988 ft 408 kts 141°
2026-05-05 19:17 49.35406 9.71259 25382 ft 410 kts 141°
2026-05-05 19:18 49.33223 9.74102 25782 ft 412 kts 141°
2026-05-05 19:18 49.31029 9.76955 26115 ft 416 kts 141°
2026-05-05 19:18 49.28819 9.79827 26490 ft 418 kts 141°
2026-05-05 19:18 49.26598 9.82708 26852 ft 419 kts 141°
2026-05-05 19:19 49.24369 9.85598 27251 ft 421 kts 141°
2026-05-05 19:19 49.22157 9.88460 27620 ft 423 kts 142°
2026-05-05 19:19 49.19910 9.91366 27967 ft 425 kts 141°
2026-05-05 19:19 49.17646 9.94289 28316 ft 427 kts 141°
2026-05-05 19:20 49.15374 9.97218 28660 ft 428 kts 142°
2026-05-05 19:20 49.13094 10.00157 29037 ft 430 kts 142°
2026-05-05 19:20 49.10799 10.03108 29296 ft 433 kts 142°
2026-05-05 19:20 49.08494 10.06069 29661 ft 434 kts 142°
2026-05-05 19:21 49.06204 10.09094 29964 ft 437 kts 139°
2026-05-05 19:21 49.03981 10.12262 30239 ft 438 kts 140°
2026-05-05 19:21 49.01737 10.15427 30492 ft 440 kts 140°
2026-05-05 19:21 48.99482 10.18589 30747 ft 442 kts 140°